Snowfall_Accumulation
0.0 0.0 0.0 0.0 0.0 0.0 0.0 0.0 6.7 0.0 0.0 0.9 5.8 5.4 1.5 0.0 0.0 0.0 0.0 0.0 0.0 0.0 0.0 0.1 0.2 0.1 0.0 0.0 0.0 0.0 0.0 1.5 5.2 0.3 0.0 0.0 0.0 0.0 0.0 5.2 3.6 1.2 2.9 8.1
0.0 0.0 0.0 0.0 0.0 0.0 0.0 0.0 0.0 0.0 0.0 6.8 3.4 0.2 0.5 0.0 0.0 0.0 0.0 0.0 0.0 0.0 0.0 0.0 0.0 0.0 0.0 0.0 0.0 0.0 0.0 4.9 7.6 4.3 0.3 0.0 1.9 0.2 0.1 1.0 2.2 4.6 3.9 4.0
0.0 0.0 0.0 0.0 0.0 0.0 0.0 0.0 7.1 0.0 0.0 0.0 0.0 0.6 0.6 0.1 0.0 0.0 0.0 0.0 0.0 0.0 0.0 0.0 0.0 0.0 0.0 0.0 0.0 0.0 0.0 1.5 5.5 6.2 3.4 3.3 4.4 0.7 0.8 3.5 10.0 0.9 0.6 0.2
0.0 0.0 0.0 0.0 0.0 0.0 0.0 0.0 0.4 0.0 4.7 1.1 0.0 0.1 0.1 0.0 0.0 0.0 0.0 0.0 0.0 0.0 0.1 0.0 0.0 0.0 0.0 0.0 0.0 0.0 0.0 8.5 8.9 2.1 1.0 2.3 3.0 1.0 0.5 4.2 0.9 4.1 0.0 0.0
0.0 0.0 0.0 0.0 0.0 0.0 0.0 0.1 0.0 0.0 0.0 0.0 0.4 0.2 0.0 0.0 0.0 0.0 0.0 0.0 0.0 0.0 0.0 0.0 0.0 0.0 0.0 0.0 0.0 0.0 0.0 7.2 4.3 2.1 0.4 1.9 3.2 0.5 0.3 0.1 0.1 0.1 0.0 0.0
0.0 0.0 0.0 0.0 0.0 0.0 0.0 0.0 0.0 0.0 0.0 0.3 0.1 0.0 0.0 0.0 0.0 0.0 0.0 0.0 0.0 0.0 0.0 0.0 0.0 0.0 0.0 0.0 0.0 0.0 0.5 3.8 5.5 5.7 1.1 1.6 2.6 0.4 0.1 0.0 0.0 0.0 0.6 0.0
0.0 0.0 0.0 0.0 0.0 0.0 0.0 0.0 0.0 0.0 0.0 0.0 0.0 0.0 0.0 0.0 0.0 0.0 0.0 0.0 0.0 0.0 0.0 0.0 0.0 0.0 0.0 0.0 0.0 0.0 0.0 1.2 3.0 6.5 3.4 7.1 0.0 0.0 0.0 0.0 0.0 0.0 0.0 0.0
0.0 0.0 0.0 0.0 0.0 0.0 0.0 0.0 0.0 0.0 0.0 0.0 0.0 0.0 0.0 0.0 0.0 0.0 0.0 0.0 0.0 0.0 0.0 0.0 0.0 0.0 0.0 0.0 0.0 0.0 0.0 0.0 1.6 2.3 2.1 0.0 0.0 0.0 0.0 0.0 0.0 0.0 0.0 0.0
0.0 0.0 0.0 0.0 0.0 0.0 0.0 0.0 0.0 0.0 0.0 0.0 0.0 0.0 0.0 0.0 0.0 0.0 0.0 0.0 0.0 0.0 0.0 0.0 0.9 0.2 0.0 0.0 0.0 0.0 0.0 0.0 0.4 0.9 2.8 0.6 0.0 0.0 0.0 0.0 0.0 0.0 0.0 0.0
0.0 0.0 0.0 0.0 0.0 0.0 0.0 0.0 0.0 0.0 0.0 0.0 0.0 0.0 0.0 0.0 0.0 0.0 0.0 0.0 0.0 0.0 0.0 0.8 0.4 0.1 0.0 0.0 0.0 0.2 0.1 0.1 1.1 0.7 1.9 0.0 0.0 0.0 0.0 0.1 0.0 0.0 0.0 0.0
0.0 0.0 0.0 0.0 0.0 0.0 0.0 0.0 0.0 0.0 0.0 0.0 0.0 0.0 0.0 0.0 0.0 0.0 0.0 0.2 0.0 0.0 0.1 0.4 0.0 0.0 0.0 0.0 0.0 0.0 0.0 0.1 0.2 0.5 1.5 0.0 0.0 0.0 0.0 0.0 0.0 0.0 0.0 0.0
0.0 0.0 0.0 0.0 0.0 0.0 0.0 0.0 0.0 0.0 0.0 0.0 0.0 0.0 0.0 0.0 0.0 0.0 0.0 0.0 1.0 0.6 1.0 0.3 0.0 0.0 0.0 0.0 0.0 0.0 0.0 0.0 0.0 0.0 0.0 0.0 0.0 0.0 0.0 0.0 0.0 0.0 0.0 0.0
0.0 0.0 0.0 0.0 0.0 0.0 0.0 0.0 0.0 0.0 0.2 0.0 0.0 0.0 0.0 0.0 0.0 0.0 0.0 0.0 0.0 0.7 0.3 0.4 0.3 0.3 0.0 0.0 0.0 0.0 0.0 0.0 0.0 0.0 0.0 0.0 0.0 0.0 0.0 0.0 0.0 0.0 0.0 0.0
0.0 0.0 0.0 0.0 0.0 0.0 0.0 0.0 0.0 0.0 0.0 1.6 0.0 0.0 0.0 0.0 0.0 0.0 0.0 0.0 0.0 0.0 0.0 0.2 1.0 0.9 0.0 0.0 0.0 0.0 0.0 0.0 0.0 0.0 0.0 0.0 0.0 0.0 0.0 0.0 0.0 0.0 0.0 0.0
0.0 0.0 0.0 0.0 0.0 0.0 0.0 0.0 0.0 0.0 0.0 2.2 0.6 0.0 0.0 0.0 0.0 0.0 0.0 0.0 0.0 0.5 0.5 0.7 0.6 0.0 0.0 0.0 0.1 0.0 0.0 0.0 0.0 0.0 0.0 0.0 0.0 0.0 0.0 0.0 0.0 0.0 0.0 0.0
0.0 0.0 0.0 0.0 0.0 0.0 0.0 0.0 0.0 0.0 0.0 2.3 5.7 0.0 0.0 0.0 0.0 0.0 0.0 0.0 0.2 0.0 1.0 0.2 0.0 0.0 0.0 1.8 0.8 0.0 0.0 0.0 0.0 0.0 0.0 0.0 0.0 0.0 0.0 0.0 0.0 0.0 0.0 0.0
0.0 0.0 0.0 0.0 0.0 0.0 0.0 0.0 0.0 0.0 0.0 2.9 7.0 2.4 0.0 0.0 0.0 0.0 0.0 0.0 0.0 0.0 1.2 0.6 0.0 0.4 0.0 2.8 0.6 0.0 0.0 0.0 0.0 0.0 0.0 0.0 0.0 0.0 0.0 0.0 0.0 0.0 0.0 0.0
0.0 0.0 0.0 0.0 0.0 0.0 0.0 0.0 0.0 0.0 0.0 1.9 9.2 7.6 0.6 0.0 0.0 0.2 0.0 0.0 0.0 0.1 0.1 0.2 0.1 0.0 0.2 2.2 0.0 0.0 0.0 0.0 0.0 0.0 0.0 0.0 0.0 0.0 0.0 0.0 0.0 0.0 0.0 0.0
0.0 0.0 0.0 0.0 0.0 0.0 0.0 0.0 0.0 0.0 0.0 6.4 4.8 3.5 3.1 0.1 0.0 0.0 0.0 0.0 1.8 0.0 0.3 1.7 0.2 0.5 1.0 0.0 0.0 0.0 0.0 0.0 0.0 0.0 0.0 0.0 0.0 0.0 0.0 0.0 0.0 0.0 0.0 0.0
0.0 0.0 0.0 0.0 0.0 0.0 0.0 0.0 0.4 1.6 0.8 1.0 4.5 0.7 1.0 0.0 0.0 0.5 0.3 0.8 1.0 2.5 0.1 0.0 1.4 0.1 0.0 0.0 0.0 0.0 0.0 0.0 0.0 0.0 0.0 0.0 0.0 0.0 0.0 0.0 0.0 0.0 0.0 0.0
0.0 0.0 0.7 0.0 0.0 0.0 0.0 8.8 10.5 4.6 5.0 1.4 0.7 0.8 1.2 0.0 1.4 1.6 1.2 4.5 2.4 4.5 0.1 0.5 2.5 0.6 0.0 0.0 0.0 0.0 0.0 0.0 0.0 0.0 0.0 0.0 0.0 0.0 0.0 0.0 0.0 0.0 0.0 0.0
0.0 0.0 1.4 1.6 3.4 10.2 17.7 12.8 3.9 2.7 0.2 0.6 0.9 0.1 0.0 0.2 0.0 1.2 3.5 6.3 6.2 4.1 0.2 4.6 1.0 0.0 0.0 0.0 0.0 0.0 0.0 0.0 0.0 0.0 0.0 0.0 0.0 0.0 0.1 0.6 0.7 0.1 0.3 0.2
0.0 4.6 20.7 18.8 16.1 25.5 16.3 5.6 2.2 1.3 0.7 0.8 0.5 0.7 0.2 0.4 0.5 4.8 7.1 9.9 5.3 0.3 3.9 0.1 0.0 0.0 0.1 0.0 0.3 0.0 0.0 0.0 0.0 0.6 0.7 0.5 0.1 0.0 0.2 0.5 0.8 0.5 0.2 0.1
11.1 28.7 36.3 19.6 14.9 3.4 1.1 0.6 0.7 0.2 0.4 0.2 0.4 0.6 0.6 0.6 4.5 4.0 7.8 1.0 3.3 7.0 2.5 0.3 0.4 0.1 0.2 0.3 0.4 0.2 0.1 0.0 0.0 0.0 0.1 0.3 0.6 0.7 0.5 0.7 0.4 0.2 0.6 0.4
27.5 24.5 20.5 8.5 1.8 0.7 0.7 0.6 0.3 0.0 0.2 0.1 0.1 0.2 2.0 3.3 8.5 4.7 3.9 7.3 3.1 0.2 0.0 0.0 0.3 0.7 0.5 1.5 1.2 0.7 0.3 0.1 0.0 0.0 0.2 1.2 0.1 0.0 0.0 0.0 0.0 0.0 0.1 0.2
27.7 23.4 11.4 2.2 0.2 0.1 0.3 0.4 0.4 0.0 0.0 0.0 1.8 5.2 7.4 7.1 6.5 7.7 3.1 5.8 1.2 0.8 1.6 1.3 1.8 2.0 1.0 0.0 0.1 0.0 0.0 0.0 0.2 0.9 2.2 1.1 0.0 0.1 0.0 0.0 0.1 0.0 0.0 0.0
31.8 13.3 2.8 0.9 0.1 0.1 0.2 0.1 0.1 0.0 1.1 4.0 6.8 13.7 4.6 2.2 6.2 1.8 0.2 0.8 0.3 0.9 0.8 0.6 0.3 0.0 0.0 0.0 0.0 0.0 0.0 0.2 0.0 0.1 1.2 1.2 0.8 0.3 0.1 0.0 0.0 0.0 0.0 0.0